This is the latest recevied weather packets stored in our database for station/object EA4HRG-10. If no packets are shown the sender has not sent any weather packets the latest 10 day(s).
| Time | Temp. | Humidity | Pressure | Rain* | Wind** | Luminosity | Snow |
|---|---|---|---|---|---|---|---|
| 1787948012 | 18.33° C | 36% | 913.6 hPa | - | - | - | - |
| 1787947112 | 18.89° C | 35% | 913.3 hPa | - | - | - | - |
| 1787946212 | 19.44° C | 33% | 913 hPa | - | - | - | - |
| 1787945312 | 20° C | 32% | 912.8 hPa | - | - | - | - |
| 1787944412 | 21.11° C | 30% | 912.6 hPa | - | - | - | - |
| 1787943512 | 22.22° C | 28% | 912.3 hPa | - | - | - | - |
| 1787942612 | 22.78° C | 27% | 912.2 hPa | - | - | - | - |
| 1787941712 | - | 100% | - | - | - | - | - |
| 1787940812 | - | 100% | - | - | - | - | - |
| 1787939911 | - | 100% | - | - | - | - | - |
| 1787939012 | 28.33° C | 18% | 912.1 hPa | - | - | - | - |
| 1787938112 | 29.44° C | 17% | 912.2 hPa | - | - | - | - |
| 1787937212 | 30.56° C | 15% | 912.1 hPa | - | - | - | - |
| 1787936312 | 30° C | 14% | 912 hPa | - | - | - | - |
| 1787935412 | 32.22° C | 12% | 912 hPa | - | - | - | - |
| 1787934512 | 31.67° C | 12% | 912 hPa | - | - | - | - |
| 1787933612 | 31.67° C | 12% | 911.9 hPa | - | - | - | - |
| 1787932712 | 31.67° C | 12% | 912.1 hPa | - | - | - | - |
| 1787931812 | 32.78° C | 12% | 912.2 hPa | - | - | - | - |
| 1787930912 | 33.33° C | 10% | 912.3 hPa | - | - | - | - |
| 1787930012 | 33.89° C | 11% | 912.3 hPa | - | - | - | - |
| 1787929112 | 32.22° C | 13% | 912.3 hPa | - | - | - | - |
| 1787928021 | 33.33° C | 12% | 912.4 hPa | - | - | - | - |
* Rain since midnight (hover to see other rain measurements)
** Current wind speed in m/s (hover to see current wind gust speed)